Time,TemperatureF,DewpointF,PressureIn,WindDirection,WindDirectionDegrees,WindSpeedMPH,WindSpeedGustMPH,Humidity,HourlyPrecipIn,Conditions,Clouds,dailyrainin,SoftwareType,DateUTC
2013-01-22 00:05:00,-1.0,-8.0,30.16,NNE,32,3.0,-999.0,72,-99.99,,,0.00,weatherlink.com 1.10,2013-01-22 05:05:00,
2013-01-22 00:20:00,-1.4,-8.0,30.16,NE,40,1.0,-999.0,72,-99.99,,,0.00,weatherlink.com 1.10,2013-01-22 05:20:00,
2013-01-22 00:35:00,-1.9,-9.0,30.16,NNE,26,2.0,-999.0,71,-99.99,,,0.00,weatherlink.com 1.10,2013-01-22 05:35:00,
2013-01-22 00:50:00,-2.0,-10.0,30.16,NE,36,2.0,-999.0,70,-99.99,,,0.00,weatherlink.com 1.10,2013-01-22 05:50:00,
2013-01-22 01:05:00,-2.3,-10.0,30.16,NE,35,0.0,-999.0,70,-99.99,,,0.00,weatherlink.com 1.10,2013-01-22 06:05:00,
2013-01-22 01:20:00,-2.6,-10.0,30.16,NE,35,0.0,-999.0,70,-99.99,,,0.00,weatherlink.com 1.10,2013-01-22 06:20:00,
2013-01-22 01:35:00,-3.6,-11.0,30.17,NNE,25,1.0,-999.0,70,-99.99,,,0.00,weatherlink.com 1.10,2013-01-22 06:35:00,
2013-01-22 01:50:00,-4.2,-11.0,30.17,NE,38,3.0,-999.0,71,-99.99,,,0.00,weatherlink.com 1.10,2013-01-22 06:50:00,
2013-01-22 02:05:00,-4.9,-12.0,30.18,NNE,32,2.0,-999.0,72,-99.99,,,0.00,weatherlink.com 1.10,2013-01-22 07:05:00,
2013-01-22 02:20:00,-4.9,-12.0,30.19,ENE,61,4.0,-999.0,72,-99.99,,,0.00,weatherlink.com 1.10,2013-01-22 07:20:00,
2013-01-22 02:35:00,-5.3,-12.0,30.19,NE,37,4.0,-999.0,71,-99.99,,,0.00,weatherlink.com 1.10,2013-01-22 07:35:00,
2013-01-22 02:50:00,-6.2,-13.0,30.20,NE,41,4.0,-999.0,71,-99.99,,,0.00,weatherlink.com 1.10,2013-01-22 07:50:00,
2013-01-22 03:05:00,-6.4,-13.0,30.20,NE,44,2.0,-999.0,72,-99.99,,,0.00,weatherlink.com 1.10,2013-01-22 08:05:00,
2013-01-22 03:21:00,-6.5,-13.0,30.21,NE,44,1.0,-999.0,72,-99.99,,,0.00,weatherlink.com 1.10,2013-01-22 08:21:00,
2013-01-22 03:36:00,-6.4,-13.0,30.21,NE,52,1.0,-999.0,72,-99.99,,,0.00,weatherlink.com 1.10,2013-01-22 08:36:00,
2013-01-22 03:51:00,-6.5,-13.0,30.22,NE,52,0.0,-999.0,72,-99.99,,,0.00,weatherlink.com 1.10,2013-01-22 08:51:00,
2013-01-22 04:06:00,-7.3,-14.0,30.23,NE,53,3.0,-999.0,72,-99.99,,,0.00,weatherlink.com 1.10,2013-01-22 09:06:00,
2013-01-22 04:21:00,-7.5,-14.0,30.23,NE,53,0.0,-999.0,73,-99.99,,,0.00,weatherlink.com 1.10,2013-01-22 09:21:00,
2013-01-22 04:36:00,-8.7,-15.0,30.24,NE,52,0.0,-999.0,72,-99.99,,,0.00,weatherlink.com 1.10,2013-01-22 09:36:00,
2013-01-22 04:51:00,-9.3,-15.0,30.24,NNE,33,4.0,-999.0,74,-99.99,,,0.00,weatherlink.com 1.10,2013-01-22 09:51:00,
2013-01-22 05:06:00,-9.0,-16.0,30.24,NE,53,2.0,-999.0,72,-99.99,,,0.00,weatherlink.com 1.10,2013-01-22 10:06:00,
2013-01-22 05:21:00,-9.4,-16.0,30.25,NE,49,2.0,-999.0,72,-99.99,,,0.00,weatherlink.com 1.10,2013-01-22 10:21:00,
2013-01-22 05:36:00,-9.3,-16.0,30.25,NE,53,2.0,-999.0,71,-99.99,,,0.00,weatherlink.com 1.10,2013-01-22 10:36:00,
2013-01-22 05:51:00,-10.1,-17.0,30.26,NE,53,0.0,-999.0,71,-99.99,,,0.00,weatherlink.com 1.10,2013-01-22 10:51:00,
2013-01-22 06:06:00,-11.7,-18.0,30.27,NE,53,1.0,-999.0,72,-99.99,,,0.00,weatherlink.com 1.10,2013-01-22 11:06:00,
2013-01-22 06:21:00,-13.6,-20.0,30.28,NE,53,0.0,-999.0,72,-99.99,,,0.00,weatherlink.com 1.10,2013-01-22 11:21:00,
2013-01-22 06:37:00,-14.6,-21.0,30.29,NE,53,0.0,-999.0,73,-99.99,,,0.00,weatherlink.com 1.10,2013-01-22 11:37:00,
2013-01-22 06:52:00,-14.7,-20.0,30.29,NE,53,0.0,-999.0,75,-99.99,,,0.00,weatherlink.com 1.10,2013-01-22 11:52:00,
2013-01-22 07:07:00,-15.6,-22.0,30.30,NE,53,0.0,-999.0,74,-99.99,,,0.00,weatherlink.com 1.10,2013-01-22 12:07:00,
2013-01-22 07:22:00,-17.7,-24.0,30.31,NE,53,0.0,-999.0,74,-99.99,,,0.00,weatherlink.com 1.10,2013-01-22 12:22:00,
2013-01-22 07:37:00,-18.4,-24.0,30.31,NE,53,0.0,-999.0,75,-99.99,,,0.00,weatherlink.com 1.10,2013-01-22 12:37:00,
2013-01-22 07:52:00,-14.3,-20.0,30.31,NE,38,1.0,-999.0,77,-99.99,,,0.00,weatherlink.com 1.10,2013-01-22 12:52:00,
2013-01-22 08:07:00,-13.8,-20.0,30.32,ENE,63,2.0,-999.0,74,-99.99,,,0.00,weatherlink.com 1.10,2013-01-22 13:07:00,
2013-01-22 08:22:00,-14.3,-21.0,30.33,NE,44,2.0,-999.0,72,-99.99,,,0.00,weatherlink.com 1.10,2013-01-22 13:22:00,
2013-01-22 08:37:00,-14.5,-22.0,30.33,NE,46,4.0,-999.0,70,-99.99,,,0.00,weatherlink.com 1.10,2013-01-22 13:37:00,
2013-01-22 08:52:00,-14.6,-22.0,30.34,ENE,63,3.0,-999.0,69,-99.99,,,0.00,weatherlink.com 1.10,2013-01-22 13:52:00,
2013-01-22 09:07:00,-13.8,-22.0,30.34,East,84,0.0,-999.0,68,-99.99,,,0.00,weatherlink.com 1.10,2013-01-22 14:07:00,
2013-01-22 09:22:00,-13.9,-22.0,30.34,ENE,70,0.0,-999.0,67,-99.99,,,0.00,weatherlink.com 1.10,2013-01-22 14:22:00,
2013-01-22 09:37:00,-13.5,-22.0,30.35,East,87,3.0,-999.0,65,-99.99,,,0.00,weatherlink.com 1.10,2013-01-22 14:37:00,
2013-01-22 09:53:00,-12.8,-21.0,30.35,East,81,1.0,-999.0,65,-99.99,,,0.00,weatherlink.com 1.10,2013-01-22 14:53:00,
2013-01-22 10:08:00,-12.1,-21.0,30.36,ENE,78,0.0,-999.0,63,-99.99,,,0.00,weatherlink.com 1.10,2013-01-22 15:08:00,
2013-01-22 10:23:00,-11.6,-21.0,30.36,East,100,1.0,-999.0,62,-99.99,,,0.00,weatherlink.com 1.10,2013-01-22 15:23:00,
2013-01-22 10:38:00,-10.6,-20.0,30.36,East,100,0.0,-999.0,62,-99.99,,,0.00,weatherlink.com 1.10,2013-01-22 15:38:00,
2013-01-22 10:53:00,-9.3,-19.0,30.36,East,100,0.0,-999.0,61,-99.99,,,0.00,weatherlink.com 1.10,2013-01-22 15:53:00,
2013-01-22 11:08:00,-8.4,-19.0,30.37,ENE,75,1.0,-999.0,60,-99.99,,,0.00,weatherlink.com 1.10,2013-01-22 16:08:00,
2013-01-22 11:23:00,-9.2,-19.0,30.37,NW,311,0.0,-999.0,61,-99.99,,,0.00,weatherlink.com 1.10,2013-01-22 16:23:00,
2013-01-22 11:38:00,-7.5,-19.0,30.36,NNE,20,4.0,-999.0,57,-99.99,,,0.00,weatherlink.com 1.10,2013-01-22 16:38:00,
2013-01-22 11:53:00,-6.9,-20.0,30.36,NE,34,1.0,-999.0,54,-99.99,,,0.00,weatherlink.com 1.10,2013-01-22 16:53:00,
2013-01-22 12:08:00,-6.4,-19.0,30.36,NNE,30,3.0,-999.0,53,-99.99,,,0.00,weatherlink.com 1.10,2013-01-22 17:08:00,
2013-01-22 12:23:00,-5.2,-18.0,30.36,NNW,346,2.0,-999.0,55,-99.99,,,0.00,weatherlink.com 1.10,2013-01-22 17:23:00,
2013-01-22 12:38:00,-4.6,-18.0,30.35,North,5,4.0,-999.0,52,-99.99,,,0.00,weatherlink.com 1.10,2013-01-22 17:38:00,
2013-01-22 12:53:00,-5.0,-19.0,30.35,NNW,344,3.0,-999.0,52,-99.99,,,0.00,weatherlink.com 1.10,2013-01-22 17:53:00,
2013-01-22 13:08:00,-4.3,-18.0,30.35,NNE,14,2.0,-999.0,52,-99.99,,,0.00,weatherlink.com 1.10,2013-01-22 18:08:00,
2013-01-22 13:39:00,-4.6,-17.0,30.35,SW,218,4.0,-999.0,55,-99.99,,,0.00,weatherlink.com 1.10,2013-01-22 18:39:00,
2013-01-22 13:54:00,-4.0,-17.0,30.35,SW,217,2.0,-999.0,54,-99.99,,,0.00,weatherlink.com 1.10,2013-01-22 18:54:00,
2013-01-22 14:09:00,-3.6,-17.0,30.35,SW,217,1.0,-999.0,53,-99.99,,,0.00,weatherlink.com 1.10,2013-01-22 19:09:00,
2013-01-22 14:24:00,-3.0,-17.0,30.35,SW,217,0.0,-999.0,52,-99.99,,,0.00,weatherlink.com 1.10,2013-01-22 19:24:00,
2013-01-22 14:39:00,-2.8,-16.0,30.35,SW,217,2.0,-999.0,52,-99.99,,,0.00,weatherlink.com 1.10,2013-01-22 19:39:00,
2013-01-22 14:54:00,-2.4,-16.0,30.35,SW,217,1.0,-999.0,52,-99.99,,,0.00,weatherlink.com 1.10,2013-01-22 19:54:00,
2013-01-22 15:09:00,-5.0,-17.0,30.36,SW,217,2.0,-999.0,55,-99.99,,,0.00,weatherlink.com 1.10,2013-01-22 20:09:00,
2013-01-22 15:24:00,-5.2,-17.0,30.36,SW,217,2.0,-999.0,57,-99.99,,,0.00,weatherlink.com 1.10,2013-01-22 20:24:00,
2013-01-22 15:39:00,-2.9,-15.0,30.36,WSW,237,4.0,-999.0,56,-99.99,,,0.00,weatherlink.com 1.10,2013-01-22 20:39:00,
2013-01-22 15:54:00,-2.4,-15.0,30.36,WSW,248,3.0,-999.0,54,-99.99,,,0.00,weatherlink.com 1.10,2013-01-22 20:54:00,
2013-01-22 16:09:00,-2.4,-15.0,30.36,WSW,248,1.0,-999.0,54,-99.99,,,0.00,weatherlink.com 1.10,2013-01-22 21:09:00,
2013-01-22 16:24:00,-2.4,-15.0,30.36,WSW,248,0.0,-999.0,55,-99.99,,,0.00,weatherlink.com 1.10,2013-01-22 21:24:00,
2013-01-22 16:40:00,-3.3,-15.0,30.36,WSW,248,0.0,-999.0,57,-99.99,,,0.00,weatherlink.com 1.10,2013-01-22 21:40:00,
2013-01-22 16:55:00,-3.5,-16.0,30.36,WSW,248,1.0,-999.0,56,-99.99,,,0.00,weatherlink.com 1.10,2013-01-22 21:55:00,
2013-01-22 17:10:00,-7.0,-18.0,30.36,WSW,248,0.0,-999.0,59,-99.99,,,0.00,weatherlink.com 1.10,2013-01-22 22:10:00,
2013-01-22 17:25:00,-7.3,-17.0,30.37,WSW,248,0.0,-999.0,62,-99.99,,,0.00,weatherlink.com 1.10,2013-01-22 22:25:00,
2013-01-22 17:40:00,-8.1,-18.0,30.37,WSW,248,0.0,-999.0,63,-99.99,,,0.00,weatherlink.com 1.10,2013-01-22 22:40:00,
2013-01-22 17:55:00,-10.7,-19.0,30.38,WSW,248,1.0,-999.0,66,-99.99,,,0.00,weatherlink.com 1.10,2013-01-22 22:55:00,
2013-01-22 18:10:00,-12.1,-19.0,30.38,WSW,248,1.0,-999.0,71,-99.99,,,0.00,weatherlink.com 1.10,2013-01-22 23:10:00,
2013-01-22 18:25:00,-15.4,-22.0,30.38,WSW,248,0.0,-999.0,70,-99.99,,,0.00,weatherlink.com 1.10,2013-01-22 23:25:00,
2013-01-22 18:40:00,-15.1,-21.0,30.39,WSW,248,0.0,-999.0,73,-99.99,,,0.00,weatherlink.com 1.10,2013-01-22 23:40:00,
2013-01-22 18:55:00,-16.9,-23.0,30.39,WSW,248,0.0,-999.0,73,-99.99,,,0.00,weatherlink.com 1.10,2013-01-22 23:55:00,
2013-01-22 19:10:00,-16.5,-22.0,30.39,WSW,248,0.0,-999.0,75,-99.99,,,0.00,weatherlink.com 1.10,2013-01-23 00:10:00,
2013-01-22 19:25:00,-18.6,-24.0,30.39,WSW,248,0.0,-999.0,75,-99.99,,,0.00,weatherlink.com 1.10,2013-01-23 00:25:00,
2013-01-22 19:41:00,-19.6,-25.0,30.39,WSW,248,0.0,-999.0,75,-99.99,,,0.00,weatherlink.com 1.10,2013-01-23 00:41:00,
2013-01-22 19:56:00,-19.3,-25.0,30.39,WSW,248,0.0,-999.0,76,-99.99,,,0.00,weatherlink.com 1.10,2013-01-23 00:56:00,
2013-01-22 20:11:00,-18.1,-23.0,30.38,WSW,248,0.0,-999.0,77,-99.99,,,0.00,weatherlink.com 1.10,2013-01-23 01:11:00,
2013-01-22 20:26:00,-16.3,-21.0,30.38,WSW,248,0.0,-999.0,78,-99.99,,,0.00,weatherlink.com 1.10,2013-01-23 01:26:00,
2013-01-22 20:41:00,-14.4,-19.0,30.38,WSW,248,0.0,-999.0,78,-99.99,,,0.00,weatherlink.com 1.10,2013-01-23 01:41:00,
2013-01-22 21:11:00,-12.6,-18.0,30.37,WSW,248,0.0,-999.0,78,-99.99,,,0.00,weatherlink.com 1.10,2013-01-23 02:11:00,
2013-01-22 21:26:00,-12.9,-18.0,30.37,WSW,248,0.0,-999.0,77,-99.99,,,0.00,weatherlink.com 1.10,2013-01-23 02:26:00,
2013-01-22 21:41:00,-11.2,-16.0,30.36,WSW,248,0.0,-999.0,78,-99.99,,,0.00,weatherlink.com 1.10,2013-01-23 02:41:00,
2013-01-22 21:56:00,-11.2,-17.0,30.36,WSW,248,1.0,-999.0,77,-99.99,,,0.00,weatherlink.com 1.10,2013-01-23 02:56:00,
2013-01-22 22:26:00,-10.6,-16.0,30.36,WSW,246,2.0,-999.0,77,-99.99,,,0.00,weatherlink.com 1.10,2013-01-23 03:26:00,
2013-01-22 22:42:00,-11.5,-17.0,30.36,WSW,246,0.0,-999.0,76,-99.99,,,0.00,weatherlink.com 1.10,2013-01-23 03:42:00,
2013-01-22 22:57:00,-12.7,-18.0,30.35,WSW,245,0.0,-999.0,76,-99.99,,,0.00,weatherlink.com 1.10,2013-01-23 03:57:00,
2013-01-22 23:12:00,-13.3,-19.0,30.35,WSW,245,0.0,-999.0,77,-99.99,,,0.00,weatherlink.com 1.10,2013-01-23 04:12:00,
2013-01-22 23:27:00,-12.6,-18.0,30.35,East,90,3.0,-999.0,77,-99.99,,,0.00,weatherlink.com 1.10,2013-01-23 04:27:00,
2013-01-22 23:42:00,-14.1,-20.0,30.36,East,89,1.0,-999.0,75,-99.99,,,0.00,weatherlink.com 1.10,2013-01-23 04:42:00,
2013-01-22 23:57:00,-15.4,-21.0,30.36,East,88,0.0,-999.0,75,-99.99,,,0.00,weatherlink.com 1.10,2013-01-23 04:57:00,